Regional Weather Roundup
Issued by NWS

Home | Current Version | Previous Version | Text Only | Print | Product List | Glossary On
Versions: 1 2 3 4 5 6 7 8 9 10 11 12 13 14 15 16 17 18 19 20 21 22 23 24 25 26 27 28 29 30 31 32 33 34 35 36 37 38 39 40 41 42 43 44 45 46 47 48 49 50
000
ASUS46 KSTO 251416
RWRCA

NORTHERN AND CENTRAL CALIFORNIA STATE WEATHER ROUNDUP
NATIONAL WEATHER SERVICE SACRAMENTO
700 AM PDT SAT APR 25 2015

Note: "fair" indicates few or no clouds below 12,000 feet with no
significant weather and/or obstructions to visibility.

CAZ001-003-251500
NORTHWEST AREA

CITY           SKY/WX    TMP DP  RH WIND       PRES   REMARKS
CRESCENT CITY  MOCLDY    46  45  96 CALM      30.00R
ARCATA         NOT AVBL
SHELTER COVE   NOT AVBL
UKIAH          CLEAR     49  44  83 NW6       29.91R
$$

CAZ006-505>513-251500
BAY AREA

CITY           SKY/WX    TMP DP  RH WIND       PRES   REMARKS
SANTA ROSA     FOG       49  48  97 CALM      29.89R VSB 1/4
SAN RAFAEL     N/A       53  MM  MM MISG
NAPA           CLOUDY    52  50  93 W10       29.90R
CONCORD        MOCLDY    55  50  83 SW8       29.91R
OAKLAND CITY   N/A       55  MM  MM MISG
OAKLAND        MOCLDY    53  50  89 W18       29.92R
SAN FRAN CITY  N/A       52  MM  MM MISG
SAN FRAN ARPT  CLOUDY    54  51  90 W12       29.93R
LIVERMORE      CLOUDY    55  51  86 W9        29.91R
HAYWARD        CLOUDY    54  51  90 W13       29.92S
REDWOOD CITY   N/A       54  MM  MM MISG
MOFFETT ARPT   CLOUDY    55  51  86 W6        29.94S
SAN JOSE ARPT  CLOUDY    55  52  89 NW10      29.93R
$$

CAZ034-037-514>518-251500
CENTRAL COAST

CITY           SKY/WX    TMP DP  RH WIND       PRES   REMARKS
WATSONVILLE    CLOUDY    57  53  86 SW5       29.93R
SALINAS        CLOUDY    58  54  86 W16G24    29.95R FOG
MONTEREY       CLOUDY    55  54  96 W10G20    29.96R
SAN LUIS OBISP LGT RAIN  51  49  92 CALM      30.01S FOG
SANTA MARIA    CLOUDY    55  48  77 SE3       30.02S
$$

CAZ015-016-251500
NORTHERN SACRAMENTO VALLEY

CITY           SKY/WX    TMP DP  RH WIND       PRES   REMARKS
REDDING        PTCLDY    53  49  86 NW3       29.88R
RED BLUFF      MOCLDY    51  50  96 W3        29.89S
OROVILLE       CLOUDY    53  51  93 E3        29.89R
$$

CAZ016>018-251500
SOUTHERN SACRAMENTO VALLEY

CITY           SKY/WX    TMP DP  RH WIND       PRES   REMARKS
BEALE AFB      CLOUDY    53  53 100 NW3       29.86R
MARYSVILLE     NOT AVBL
SAC INTL ARPT  PTCLDY    52  49  89 SW6       29.86R
MATHER AIRPORT NOT AVBL
SAC EXEC ARPT  CLEAR     53  51  93 SW6       29.87R
DOWNTOWN SAC   N/A       53  MM  MM MISG
VACAVILLE      MOCLDY    55  49  80 SW9       29.88R
TRAVIS AFB     PTCLDY    52  51  95 SW15      29.87R
$$

CAZ019>021-251500
SAN JOAQUIN VALLEY

CITY           SKY/WX    TMP DP  RH WIND       PRES   REMARKS
STOCKTON       PTCLDY    55  51  86 W7        29.89S
MODESTO        MOCLDY    58  53  84 VRB6      29.90R
MERCED         NOT AVBL
LEMOORE        LGT RAIN  53  49  86 SE9       29.95S
FRESNO         RAIN      52  49  89 E10       29.93F FOG
HANFORD        LGT RAIN  54  48  80 SE6       29.95F
PORTERVILLE    CLOUDY    52  45  76 NW5       29.99R
BAKERSFIELD    LGT RAIN  55  39  54 N5        29.98R
$$

CAZ011-012-071-251500
NORTHERN MOUNTAINS

CITY           SKY/WX    TMP DP  RH WIND       PRES   REMARKS
YREKA          MOCLDY    35  33  92 CALM      29.94R
MOUNT SHASTA   CLEAR     38  33  82 VRB6      29.88R WCI  33
ALTURAS        MIX PCPN  36  34  92 VRB5      29.86R WCI  32
$$

CAZ011-012-071-251500
SIERRA NEVADA MTNS

CITY           SKY/WX    TMP DP  RH WIND       PRES   REMARKS
BLUE CANYON    MIX PCPN  36  34  92 W6        29.84S VSB 1/4 WCI  31
TRUCKEE        NOT AVBL
TAHOE VALLEY A LGT SNOW  35  31  85 SE5       29.79R VSB 3/4 WCI  31
MAMMOTH LAKES  LGT SNOW  32  32 100 N9        29.85F WCI  24
$$




USA.gov is the U.S. government's official web portal to all federal, state and local government web resources and services.